KFATKIFP

Guest
Details From KFAT - Fresno Air Terminal
To KIFP - Laughlin Bullhead Intl
Flight Number -
Tags generated
Created
Modified
Stats Distance 277 nm / 513 km
Max Altitude 5,000 ft / 1,524 m
Waypoints 3
Social Downloads 0
Likes 0
Share VATSIM

Download

Looking for another format? Having issues loading an existing format? Contact us
Advertisement - Login to hide

Notes

Basic altitude profile: - Ascent Rate: 2500ft/min - Ascent Speed: 250kts - Cruise Altitude: 35000ft - Cruise Speed: 420kts - Descent Rate: 1500ft/min - Descent Speed: 250kts Options: - Use NATs: no - Use PACOTS: no - Use low airways: no - Use high airways: no

Route

KFAT 3500N11500W KIFP

ID Type Via Altitude Latitude Longitude Leg Dist Tot Dist Heading (true) Name
O KFAT APT - 0 ft / 0 m 36.77651˚ -119.71897˚ - 0 nm - Fresno Air Terminal
3500N11500W LATLON - 5,000 ft / 1,524 m 35.00000˚ -115.00000˚ 253 nm 253 nm 114° / 116° -
O KIFP APT - 0 ft / 0 m 35.15599˚ -114.55944˚ 23 nm 276 nm 66° / 67° Laughlin Bullhead Intl

Altitude Profile

Advertisement - Login to hide

Weather


0- 5 10 15 20 25 30 35+ Temperature / ° C

Clouds and Precipitation
Forecast for 2018-05-21 18:00 UTC. Updated 7 minutes ago

Ground ~20,000 ft ~40,000 ft Winds

KFAT

Details ICAO KFAT (FAT)
Name Fresno Air Terminal
Region United States
Timezone America/Los_Angeles (UTC-7.0)
Stats Elevation 335 ft / 102 m (AMSL)
Location 36.776514° -119.718966°
Runways 2
Magnetic Variation 12.791° E

METAR

KFAT 211453Z 30008KT 10SM FEW150 BKN250 14/08 A2986 RMK AO2 SLP109 T01390078 53015

Decode

TAF

TAF KFAT 211120Z 2112/2212 VRB06KT P6SM BKN200

Decode

Departure Runways

ID Width Length Bearing (true) Bearing (mag) Surface Threshold Offset Overrun Length
11L 150 ft / 46 m 9,242 ft / 2,817 m 125.47° 112.68° Asphalt 0 ft / 0 m 1,066 ft / 325 m
11R 150 ft / 46 m 8,010 ft / 2,441 m 125.49° 112.70° Asphalt 0 ft / 0 m 1,001 ft / 305 m
29L 150 ft / 46 m 8,010 ft / 2,441 m 305.50° 292.71° Asphalt 0 ft / 0 m 1,001 ft / 305 m
29R 150 ft / 46 m 9,242 ft / 2,817 m 305.49° 292.70° Asphalt 312 ft / 95 m 850 ft / 259 m

KIFP

Details ICAO KIFP
Name Laughlin Bullhead Intl
Region United States
Timezone America/Phoenix (UTC-7.0)
Stats Elevation 701 ft / 214 m (AMSL)
Location 35.155985° -114.559436°
Runways 1
Magnetic Variation 11.293° E

METAR

KIFP 211448Z 19003KT 10SM OVC120 26/05 A2970

Decode

TAF

TAF KIFP 211138Z 2112/2212 22006KT P6SM FEW100 SCT150 OVC250 FM211400 19014G22KT P6SM BKN100 OVC200 FM220300 18011KT P6SM SCT100 BKN150 FM220800 02007KT P6SM FEW100 BKN150

Decode

Destination Runways

ID Width Length Bearing (true) Bearing (mag) Surface Threshold Offset Overrun Length
16 151 ft / 46 m 7,518 ft / 2,292 m 176.47° 165.18° Asphalt 0 ft / 0 m 699 ft / 213 m
34 151 ft / 46 m 7,518 ft / 2,292 m 356.47° 345.18° Asphalt 0 ft / 0 m 200 ft / 61 m

Popular Alternatives